Location: STAR School
(35.3054°N, 111.2976°W)
Time: 10:36:46
(UTC-07:00)

Transit 2A Rocket - All Passes

Search period start: 21 May 2019 00:00
Search period end: 31 May 2019 00:00
Orbit: 585 x 918 km, 66.7° (Epoch: 20 May)

Date Brightness Start Highest point End Pass type
(mag) Time Alt. Az. Time Alt. Az. Time Alt. Az.
21 May - 02:53:35 10° NNW 02:58:41 37° NE 03:03:18 10° ESE visible
21 May - 04:36:46 10° NW 04:40:59 24° WSW 04:44:54 10° SSW visible
21 May - 17:23:08 10° S 17:28:56 55° ESE 17:34:55 10° NE daylight
21 May - 19:07:06 10° WSW 19:11:56 24° NW 19:16:49 10° N daylight
22 May - 02:11:37 10° N 02:15:52 22° NE 02:19:49 10° E visible
22 May - 03:53:37 10° NW 03:58:45 45° WSW 04:03:23 10° S visible
22 May - 16:41:25 10° SSE 16:46:36 32° ESE 16:51:57 10° NE daylight
22 May - 18:23:32 10° SW 18:29:07 38° WNW 18:34:49 10° NNE daylight
23 May - 01:30:12 10° NNE 01:32:54 14° NE 01:35:28 10° ENE visible
23 May - 03:10:54 10° NNW 03:16:22 85° WSW 03:21:16 10° SSE visible
23 May - 16:00:28 10° SE 16:04:24 18° ESE 16:08:24 10° ENE daylight
23 May - 17:40:31 10° SW 17:46:28 63° WNW 17:52:33 10° NNE daylight
23 May - 19:28:28 10° WNW 19:30:18 11° NW 19:32:08 10° NNW daylight
24 May - 02:28:28 10° NNW 02:33:49 53° ENE 02:38:38 10° SE visible
24 May - 04:12:43 10° WNW 04:15:45 16° WSW 04:18:39 10° SW visible
24 May - 16:57:56 10° SSW 17:03:56 79° ESE 17:10:05 10° NNE daylight
24 May - 18:43:12 10° W 18:47:15 18° NW 18:51:19 10° N daylight
25 May - 01:46:18 10° N 01:51:06 30° NE 01:55:30 10° ESE visible
25 May - 03:29:03 10° NW 03:33:36 30° WSW 03:37:48 10° SSW visible
25 May - 16:15:52 10° S 16:21:32 46° ESE 16:27:20 10° NE daylight
25 May - 17:59:12 10° WSW 18:04:22 28° NW 18:09:34 10° N daylight
26 May - 01:04:28 10° N 01:08:14 19° NE 01:11:46 10° E visible
26 May - 02:46:04 10° NW 02:51:19 56° WSW 02:56:03 10° S visible
26 May - 15:34:21 10° SSE 15:39:15 27° ESE 15:44:13 10° NE daylight
26 May - 17:15:50 10° SW 17:21:36 45° WNW 17:27:28 10° NNE daylight
27 May - 00:23:35 10° NNE 00:25:13 11° NE 00:26:49 10° ENE visible
27 May - 02:03:27 10° NNW 02:08:52 79° ENE 02:13:44 10° SSE visible
27 May - 14:53:50 10° SE 14:57:04 15° ESE 15:00:20 10° ENE daylight
27 May - 16:32:57 10° SSW 16:38:59 75° WNW 16:45:08 10° NNE daylight
27 May - 18:19:48 10° WNW 18:22:37 13° NW 18:25:28 10° NNW daylight
28 May - 01:21:06 10° NNW 01:26:16 43° ENE 01:30:57 10° SE visible
28 May - 03:04:44 10° WNW 03:08:23 19° WSW 03:11:49 10° SSW visible
28 May - 15:50:33 10° SSW 15:56:30 66° ESE 16:02:34 10° NNE daylight
28 May - 17:35:08 10° W 17:39:39 21° NW 17:44:09 10° N daylight
29 May - 00:39:02 10° N 00:43:30 25° NE 00:47:38 10° ESE visible
29 May - 02:21:22 10° NW 02:26:12 36° WSW 02:30:35 10° S visible
29 May - 15:08:38 10° S 15:14:07 38° ESE 15:19:44 10° NE daylight
29 May - 16:51:23 10° WSW 16:56:48 33° NW 17:02:15 10° N daylight
29 May - 23:57:24 10° N 00:00:35 15° NE 00:03:36 10° E visible
30 May - 01:38:32 10° NNW 01:43:51 70° WSW 01:48:38 10° SSE visible
30 May - 14:27:23 10° SSE 14:31:52 22° ESE 14:36:26 10° ENE daylight
30 May - 16:08:11 10° SW 16:14:05 54° WNW 16:20:05 10° NNE daylight
